User: anonymous   Login
Location: Karlovy Vary
(50.2170°N, 12.9000°E)
Time: 10:26:54
(UTC+01:00)
Language:

ISS - Orbit

View from above orbital plane
View from above orbital plane
View from above satellite
View from above satellite

Ground track
Ground track

The orbit data is extracted from the following two-line orbital elements,

1 25544U 98067A   17054.54025403  .00016717  00000-0  10270-3 0  9018
2 25544  51.6380 244.8319 0006623 228.6235 131.4349 15.54430962  4076
Epoch (UTC): 23 February 2017 12:57:57
Eccentricity: 0.0006623
inclination: 51.6380°
perigee height: 399 km
apogee height: 408 km
right ascension of ascending node: 244.8319°
argument of perigee: 228.6235°
revolutions per day: 15.54430962
mean anomaly at epoch: 131.4349°
orbit number at epoch: 407

The dashed part of the orbit path shows where the satellite is in the earth's shadow,  

DLR